This is the latest recevied weather packets stored in our database for station/object KM5VY. If no packets are shown the sender has not sent any weather packets the latest 10 day(s).
| Time | Temp. | Humidity | Pressure | Rain* | Wind** | Luminosity | Snow |
|---|---|---|---|---|---|---|---|
| 1788458627 | 30° C | 32% | 1025.1 hPa | 0 mm | - | - | - |
| 1788458026 | 29.44° C | 32% | 1025.1 hPa | 0 mm | - | - | - |
| 1788457425 | 28.89° C | 33% | 1025.1 hPa | 0 mm | - | - | - |
| 1788456824 | 28.33° C | 34% | 1025.1 hPa | 0 mm | - | - | - |
| 1788456223 | 27.78° C | 35% | 1025.1 hPa | 0 mm | - | - | - |
| 1788455622 | 26.67° C | 37% | 1025.1 hPa | 0 mm | - | - | - |
| 1788455021 | 25.56° C | 39% | 1025.1 hPa | 0 mm | - | - | - |
| 1788454420 | 25° C | 40% | 1025.1 hPa | 0 mm | - | - | - |
| 1788453819 | 24.44° C | 41% | 1025.1 hPa | 0 mm | - | - | - |
| 1788453218 | 23.89° C | 42% | 1025.1 hPa | 0 mm | - | - | - |
| 1788452617 | 23.33° C | 42% | 1025.1 hPa | 0 mm | - | - | - |
| 1788452016 | 22.78° C | 43% | 1025.1 hPa | 0 mm | - | - | - |
| 1788451415 | 22.78° C | 43% | 1025.1 hPa | 0 mm | - | - | - |
| 1788450814 | 21.67° C | 46% | 1024.7 hPa | 0 mm | - | - | - |
| 1788450232 | 21.11° C | 48% | 1025.1 hPa | 0 mm | - | - | - |
| 1788449612 | 20.56° C | 50% | 1025.1 hPa | 0 mm | - | - | - |
| 1788449011 | 19.44° C | 51% | 1025.1 hPa | 0 mm | - | - | - |
| 1788448410 | 18.89° C | 53% | 1025.1 hPa | 0 mm | - | - | - |
| 1788447809 | 18.33° C | 56% | 1025.1 hPa | 0 mm | - | - | - |
| 1788447208 | 17.22° C | 58% | 1025.1 hPa | 0 mm | - | - | - |
| 1788446607 | 16.67° C | 61% | 1025.1 hPa | 0 mm | - | - | - |
| 1788446006 | 15.56° C | 63% | 1025.1 hPa | 0 mm | - | - | - |
| 1788445405 | 15° C | 65% | 1025.4 hPa | 0 mm | - | - | - |
| 1788444804 | 15° C | 63% | 1025.4 hPa | 0 mm | - | - | - |
| 1788444203 | 14.44° C | 62% | 1025.4 hPa | 0 mm | - | - | - |
* Rain latest hour (hover to see other rain measurements)
** Current wind speed in m/s (hover to see current wind gust speed)